Theta_e
313 310 313 312 307 307 306 306 306 306 306 305 305 306 307 310 314 316 318 319 320 320 318 317 318 316 313 312 312 311 311 310 310 309 309 310 310 310 311 311 313 314 313 312 311 311 312 312 312 313 316 317 317 318 318 319 317 319 330 329 321 323 323 320 319 314 316 318 312 311 314 315 315 314 314 315 315 315 315 314 315 317 317 317 318 317 314 313
312 311 315 312 307 307 307 307 307 307 306 306 305 306 306 306 309 313 315 317 317 317 316 315 314 313 313 312 311 311 310 310 309 309 310 310 310 310 312 312 313 314 312 311 311 311 312 312 313 314 317 317 316 318 317 318 316 320 329 324 323 329 321 316 316 311 313 315 312 312 313 314 315 314 314 316 315 314 315 315 316 317 317 317 318 317 315 314
312 312 314 311 308 308 307 308 307 307 307 307 307 306 306 306 306 308 310 312 313 313 313 313 313 315 314 312 311 311 310 309 309 309 310 310 310 311 311 312 313 313 312 311 311 311 313 313 314 315 316 316 316 317 317 317 316 317 321 323 329 327 315 312 313 312 313 313 311 311 313 314 314 314 314 315 314 313 315 315 316 316 317 317 317 316 315 314
312 312 313 309 309 309 308 308 308 308 308 308 308 308 308 308 308 308 309 310 310 311 312 312 313 314 313 311 311 310 310 309 309 310 311 310 310 311 312 313 313 312 312 311 312 312 313 313 314 315 316 316 315 316 316 316 315 315 320 327 325 316 314 314 313 313 314 313 312 312 312 313 314 315 314 314 315 314 314 315 316 316 316 315 315 316 315 314
313 312 311 309 309 309 309 309 308 309 309 309 309 309 309 309 309 309 310 310 311 311 312 312 312 312 311 310 310 310 310 310 310 311 311 310 311 311 312 313 313 312 311 311 312 312 313 314 314 315 315 314 314 316 315 315 315 314 316 317 314 311 315 314 312 314 313 313 312 311 313 314 314 314 313 314 317 317 315 315 316 315 315 315 315 315 315 315
314 311 310 309 308 309 309 309 309 309 309 309 309 309 309 309 310 310 310 311 311 311 312 311 311 311 310 310 309 310 310 311 312 312 311 311 311 312 313 313 312 311 311 312 312 312 314 314 314 314 313 313 314 315 315 314 314 317 314 311 312 312 314 314 313 314 313 313 312 311 313 313 313 313 313 313 316 316 315 315 316 315 315 314 315 315 315 315
313 311 309 309 308 309 309 309 309 309 309 309 309 309 310 310 310 310 310 311 311 311 311 310 310 310 309 310 309 309 311 311 313 314 312 311 312 313 313 312 312 311 311 311 312 313 313 314 314 313 313 313 313 313 314 313 313 320 317 311 312 313 313 314 314 313 313 313 313 313 314 313 313 314 313 313 315 315 315 315 315 315 315 314 314 314 314 315
312 310 309 309 308 309 309 310 310 309 309 309 309 310 310 310 310 310 311 311 311 310 310 310 310 310 309 310 308 309 311 311 313 315 312 311 312 313 313 312 312 311 311 311 312 313 313 314 313 313 313 312 313 313 313 313 313 318 317 312 312 313 313 313 313 313 313 313 313 313 313 313 313 313 312 313 314 314 314 316 315 315 314 314 315 314 315 314
310 309 309 309 308 308 309 309 310 309 309 309 310 310 310 310 310 310 310 311 311 310 310 310 309 309 309 309 308 309 311 311 312 314 313 312 313 313 312 311 311 311 312 311 312 312 313 313 313 313 314 312 313 313 313 314 314 314 314 312 312 312 312 313 313 313 313 313 313 314 314 313 313 313 314 315 315 314 314 315 316 316 315 315 315 314 315 315
311 309 309 309 309 308 308 309 309 310 309 310 310 310 310 310 310 310 310 310 310 310 311 310 309 309 309 309 308 308 311 311 311 313 314 314 314 313 312 311 312 312 311 312 312 312 313 313 314 314 314 313 313 312 312 314 314 313 312 311 312 312 313 313 313 313 314 313 313 315 315 313 312 313 316 316 315 315 315 315 316 316 316 316 315 315 315 315
312 310 309 309 309 308 308 308 309 309 309 310 310 310 310 310 310 310 310 310 310 310 311 310 309 308 308 309 308 309 312 312 311 311 313 315 315 313 312 311 312 311 311 312 312 312 313 314 314 313 314 314 313 313 312 313 313 312 312 313 312 311 313 313 313 313 314 314 313 314 314 312 313 314 316 315 314 315 315 315 316 316 316 315 316 316 316 316
313 311 310 309 309 308 308 308 308 309 309 309 309 310 310 310 310 310 310 310 310 310 310 310 309 307 308 309 309 311 313 314 313 312 313 315 314 312 312 312 311 312 312 312 312 312 313 314 314 314 315 314 314 314 313 313 313 312 314 317 314 313 315 313 312 313 313 315 313 313 313 314 315 315 316 314 314 315 314 315 315 315 315 315 316 315 316 316
314 312 311 310 309 309 308 308 308 308 308 309 309 309 309 310 309 310 310 310 310 310 310 311 308 307 308 308 309 311 313 316 315 313 314 313 313 312 312 312 312 312 312 311 312 312 313 315 314 314 314 314 314 313 314 312 312 313 313 317 316 314 315 311 311 313 313 314 313 312 314 319 319 314 314 314 314 315 314 315 315 315 315 315 315 315 315 315
315 314 312 310 310 309 308 308 308 308 308 308 309 309 309 309 309 310 310 310 310 310 310 310 308 307 308 309 310 311 312 315 315 314 314 312 312 311 312 312 312 312 312 312 313 313 315 315 314 315 313 314 314 312 316 314 314 315 311 316 318 313 316 314 310 313 314 313 313 312 314 321 321 313 312 314 313 314 315 315 315 315 315 315 315 315 315 315
317 316 314 312 310 309 309 308 308 307 308 308 308 309 309 309 309 309 309 310 310 310 310 310 308 307 308 309 310 311 312 313 313 314 313 312 311 311 312 313 313 314 313 313 314 314 315 315 315 315 313 314 314 314 319 318 320 321 314 317 317 311 317 317 311 311 314 314 312 312 315 320 320 312 313 314 313 314 314 315 315 315 315 315 315 315 315 315
317 317 315 313 311 310 309 308 308 307 308 308 308 309 308 308 308 309 309 309 310 310 310 309 307 307 308 309 311 312 311 311 312 313 312 312 311 312 313 313 314 315 315 314 314 314 315 315 314 314 313 314 315 317 321 320 324 324 319 321 319 313 316 317 313 310 312 314 312 312 315 321 319 313 314 315 313 314 314 315 315 315 315 315 315 315 315 315
317 317 316 314 313 311 309 308 308 307 308 308 308 308 308 308 308 308 309 309 309 309 309 308 307 307 308 310 313 313 312 311 311 312 312 311 312 313 313 314 315 315 314 314 314 314 315 315 313 314 314 312 314 318 318 316 320 321 319 321 320 317 316 317 317 311 310 314 315 313 314 320 319 313 314 315 313 313 313 315 315 315 315 315 316 315 316 316
317 316 315 315 313 312 310 309 308 307 307 308 308 308 308 308 308 308 308 308 309 308 308 308 308 309 310 310 312 314 313 311 311 312 312 311 313 313 313 315 315 314 314 314 314 314 315 313 313 317 317 313 314 316 316 316 317 318 317 317 317 317 316 318 319 314 312 314 316 316 315 319 319 313 313 314 314 314 314 315 315 316 316 316 316 316 316 316
317 316 315 314 314 313 311 309 308 308 307 307 308 307 307 307 307 307 307 308 308 309 309 309 308 311 312 310 311 314 313 312 312 312 311 312 313 313 314 314 314 315 314 314 314 314 314 314 314 318 317 314 314 314 317 321 320 318 319 321 321 320 318 318 319 312 311 316 317 317 318 319 320 316 314 314 313 312 313 314 315 316 316 316 316 316 316 316
316 315 314 314 314 313 312 309 309 308 307 308 307 307 307 307 308 308 308 308 309 310 310 310 308 311 312 310 311 314 313 312 312 311 312 312 313 314 314 314 314 314 314 316 317 313 314 316 316 317 315 315 315 313 316 318 318 316 319 325 323 321 320 317 316 311 309 315 317 317 319 319 320 318 312 312 312 310 310 312 313 315 315 315 315 315 315 315
316 314 314 314 314 313 312 310 309 308 308 308 307 307 308 308 309 310 308 308 309 310 311 311 308 310 312 309 311 314 313 313 312 311 312 312 314 314 313 313 314 314 312 313 315 313 315 317 317 317 315 314 314 314 316 316 315 315 318 323 320 320 321 315 314 314 309 313 316 316 318 317 318 317 311 309 310 310 311 311 312 314 314 314 314 314 314 314
315 314 314 314 314 313 312 311 310 309 308 308 307 308 308 308 309 310 309 308 309 310 311 311 309 310 312 310 312 314 312 313 312 312 313 312 314 313 312 313 314 314 312 311 315 315 315 317 318 314 310 311 313 314 318 318 318 318 318 321 320 319 319 314 314 315 312 313 317 318 320 319 318 316 311 307 309 311 311 311 312 313 313 313 314 313 314 313
315 315 315 314 313 313 312 311 310 309 308 308 307 308 308 308 310 310 309 308 309 309 311 312 309 310 312 311 312 314 313 312 312 313 313 313 314 312 312 312 313 315 313 314 318 317 317 319 315 309 307 312 315 313 317 317 317 320 320 320 320 317 318 318 315 314 313 313 316 319 319 319 318 318 316 310 308 310 311 312 312 312 313 314 314 314 313 314
316 316 315 314 313 313 312 311 311 309 308 308 307 308 308 308 310 310 308 308 309 309 310 311 310 309 312 312 312 313 313 312 312 313 313 313 313 312 311 312 313 314 313 314 317 316 317 314 308 306 310 316 315 312 316 317 315 319 326 330 324 319 320 319 315 315 314 312 315 316 316 324 327 326 328 317 307 308 310 311 313 313 314 315 315 315 315 315
317 316 315 314 313 313 313 312 311 309 308 308 307 308 308 308 310 310 309 309 309 309 309 310 311 310 311 312 312 313 313 312 312 312 313 313 313 312 311 310 312 314 313 313 314 315 315 309 307 309 312 315 315 314 317 320 316 315 324 332 329 325 323 319 317 317 317 314 313 312 314 332 337 328 329 323 314 313 310 307 310 314 314 313 314 315 315 316
317 315 315 314 313 313 312 311 311 309 309 308 308 308 308 309 310 309 310 312 311 310 308 309 311 311 311 313 313 313 313 313 313 313 313 312 312 311 311 310 311 313 312 311 313 315 313 309 311 315 315 315 315 315 315 318 318 313 316 321 323 325 323 321 318 316 317 313 310 312 315 323 327 323 323 323 320 322 315 309 310 312 312 311 312 313 314 315
315 314 314 314 314 313 312 311 310 309 309 308 308 309 308 309 311 309 311 313 312 311 308 308 310 311 312 313 313 312 315 315 313 313 313 312 312 311 312 311 311 312 310 310 315 314 312 313 314 317 320 317 316 315 314 316 318 313 315 318 323 325 324 324 322 319 320 314 314 320 320 315 317 318 319 318 320 324 322 319 315 310 310 311 312 313 314 314
314 313 315 314 313 313 312 311 310 309 309 307 308 309 308 309 311 310 311 312 311 310 308 308 309 311 312 313 313 312 314 314 313 313 312 312 312 311 312 311 312 315 309 310 316 312 311 318 316 318 322 318 317 317 315 321 322 315 313 318 323 324 326 329 330 328 319 311 317 324 316 312 321 325 320 315 317 320 323 324 317 310 311 313 313 315 315 315
313 313 314 313 312 312 311 310 310 309 308 308 309 309 309 310 310 309 310 309 309 309 308 309 310 311 312 312 312 311 312 312 312 313 312 312 312 311 312 310 310 315 310 310 319 315 311 315 314 316 319 317 317 315 314 325 326 313 310 316 319 321 325 327 328 325 314 311 321 323 313 312 321 329 324 315 315 321 322 322 314 309 313 315 314 315 315 316
312 312 311 312 312 311 310 310 309 309 308 309 309 310 309 310 310 309 308 309 312 310 307 308 310 311 312 312 311 311 312 312 312 312 311 312 312 310 311 310 310 317 318 317 322 317 310 310 310 313 314 314 314 312 311 317 315 310 315 319 317 322 327 328 327 320 310 315 325 321 315 313 314 324 327 317 317 320 320 323 318 311 313 316 315 317 316 316
311 311 311 311 311 310 310 309 309 308 309 309 311 311 310 312 312 309 307 310 314 311 306 308 310 311 312 312 312 312 313 312 310 312 312 312 312 311 311 311 312 317 321 321 319 315 313 313 312 311 310 311 315 316 311 309 309 313 323 322 316 321 325 327 328 318 311 320 321 315 314 313 312 322 327 321 320 318 316 323 324 314 313 315 316 317 317 317
311 311 310 310 310 309 310 309 308 308 309 311 312 310 309 311 311 309 308 309 312 311 310 310 310 312 313 312 312 313 314 313 310 311 313 313 313 312 312 314 316 316 315 317 318 315 316 317 312 310 310 311 318 322 315 313 315 316 319 320 318 321 318 321 327 319 316 320 314 313 315 313 313 319 320 321 322 319 313 314 318 313 312 316 317 317 318 317
311 310 310 311 310 309 309 309 308 309 311 312 311 309 311 311 309 309 309 309 312 311 311 310 310 311 312 312 313 313 314 314 311 311 312 313 313 313 313 316 318 318 316 318 319 316 318 320 314 312 313 312 315 320 317 317 318 315 315 317 320 321 315 317 322 316 316 319 312 311 314 314 317 316 316 319 316 313 309 308 312 312 312 316 317 317 318 316
311 310 310 311 310 309 310 309 308 310 312 312 309 309 312 311 309 310 309 310 312 310 309 311 311 311 311 311 312 313 313 313 311 312 313 313 314 313 314 313 314 320 322 318 318 317 319 320 317 315 314 313 314 315 319 321 317 314 314 314 317 325 322 320 322 319 320 322 315 311 314 320 322 314 313 313 308 309 311 310 311 311 313 317 316 317 317 316
311 310 310 310 308 309 310 309 308 311 312 311 308 308 310 310 309 310 309 309 312 310 309 311 311 312 312 311 312 312 313 313 312 312 313 313 313 313 313 311 312 320 322 315 315 316 316 316 316 313 309 312 315 312 314 319 317 314 312 310 313 321 325 319 316 319 319 318 316 313 317 324 320 313 312 308 306 309 310 310 311 312 314 316 317 318 316 316
311 311 311 309 308 310 311 309 309 311 312 310 308 308 309 309 309 310 309 310 312 311 310 311 311 313 312 311 312 311 312 314 313 312 313 313 312 312 312 312 312 315 316 315 317 316 314 314 315 313 309 311 313 310 309 313 316 314 311 314 317 316 323 319 310 311 312 312 316 316 317 321 316 314 318 314 312 314 311 309 310 312 314 315 316 317 316 317
311 311 311 308 309 312 311 310 310 311 312 310 308 309 309 308 309 310 308 309 311 311 311 312 311 313 312 311 313 312 312 314 313 313 313 312 313 313 313 312 311 311 313 315 317 317 318 317 314 315 314 310 308 309 308 308 312 317 316 316 314 310 318 320 313 317 317 315 318 316 315 319 316 316 320 316 314 317 316 312 309 311 313 313 315 316 315 316
311 311 311 309 310 312 311 311 311 311 311 310 310 311 310 308 308 308 309 309 310 312 313 313 312 312 312 311 312 312 313 313 312 313 313 312 313 313 312 312 311 310 310 310 312 315 319 318 313 312 315 312 310 312 313 309 309 315 316 312 313 316 318 316 313 319 319 315 321 320 314 313 314 318 321 315 314 318 317 315 313 312 313 313 314 314 313 315
312 311 310 310 310 311 311 311 311 311 311 311 310 311 310 308 307 307 309 309 310 312 312 314 314 312 311 311 311 311 312 312 312 313 313 312 313 312 310 312 312 310 307 309 312 314 316 319 314 311 311 312 313 314 316 316 311 310 310 308 315 323 320 315 315 317 316 315 319 322 319 317 316 317 320 315 316 318 316 317 317 312 313 314 313 312 312 313
311 310 311 311 311 312 311 310 311 311 312 312 311 309 309 308 307 307 309 309 311 311 312 315 315 312 312 311 311 311 312 312 311 312 313 312 312 311 309 310 312 311 307 308 313 314 314 316 315 312 311 312 317 317 315 317 314 313 314 312 315 317 315 316 316 315 319 320 320 318 319 324 321 316 316 315 316 318 317 321 319 310 311 314 312 313 314 313
307 308 310 311 311 311 311 310 311 311 312 312 311 310 310 309 308 307 309 310 310 310 313 315 314 314 314 312 311 312 312 312 311 311 312 311 311 311 310 309 311 311 309 309 314 316 314 314 317 316 313 314 317 315 312 315 315 314 315 315 315 315 315 316 314 312 314 317 320 318 314 321 324 316 316 317 315 314 310 311 313 310 312 314 313 314 315 314
305 306 309 310 310 311 311 311 311 311 311 311 310 310 310 310 309 308 308 310 312 311 311 313 314 315 314 311 311 313 313 313 312 312 313 312 311 312 311 308 309 310 310 312 314 314 314 318 322 320 317 316 315 309 304 309 314 313 313 315 316 315 315 318 319 316 313 311 314 316 313 321 325 314 311 312 308 307 307 307 310 312 313 314 314 315 315 314
305 306 308 310 310 311 311 311 310 310 310 309 308 309 309 310 312 311 309 310 312 312 311 312 312 312 313 313 313 312 312 312 312 312 313 312 311 311 309 308 309 310 310 313 314 311 312 318 321 320 319 318 316 311 306 308 312 313 315 315 315 316 318 325 326 320 316 314 314 314 314 321 325 312 305 305 304 306 310 310 310 312 314 315 315 314 314 314
304 305 307 309 311 311 310 310 310 309 309 309 308 309 309 310 313 314 312 311 313 315 313 313 312 310 313 317 314 311 312 312 312 312 313 313 311 310 309 308 310 311 310 312 313 311 312 317 318 318 320 319 317 317 315 313 313 315 319 316 315 318 319 319 318 314 315 319 318 317 316 317 323 317 308 307 309 310 310 311 311 313 314 314 314 315 314 314
305 305 305 306 309 310 310 309 309 309 309 309 309 309 310 309 310 312 313 313 315 317 314 312 311 310 314 315 311 310 312 313 314 312 311 314 313 308 308 309 309 310 311 311 311 310 314 318 317 316 317 316 316 317 317 317 314 315 319 316 314 317 315 314 317 315 315 318 316 317 317 313 315 318 313 311 315 313 310 311 311 312 313 314 314 314 314 314
306 306 305 304 305 306 306 306 307 308 309 309 308 309 310 310 310 311 313 314 314 314 314 312 312 311 313 313 311 311 312 312 315 315 311 314 316 311 307 308 309 309 310 310 309 313 319 319 315 314 315 313 314 316 318 319 317 315 317 316 314 314 313 317 322 319 316 316 314 314 315 313 315 317 314 315 321 321 313 310 311 312 313 314 314 313 314 313
307 307 305 304 305 304 303 304 306 307 308 308 309 309 309 310 310 311 312 313 313 314 315 315 313 312 312 313 311 312 312 311 313 315 312 312 315 312 308 308 309 308 309 309 309 315 322 317 312 315 315 312 315 320 319 318 318 316 316 315 315 314 314 316 318 316 315 316 315 313 313 313 315 317 318 320 325 325 315 309 311 314 313 313 314 313 314 313
306 306 305 306 307 306 305 305 305 307 308 308 309 309 309 309 310 310 312 312 312 314 316 315 316 316 314 313 312 313 312 311 311 314 314 312 313 314 311 309 308 308 310 310 308 313 318 315 313 315 313 312 317 322 319 317 318 317 315 315 315 314 314 315 315 315 315 315 314 315 316 314 313 315 320 319 317 317 314 311 312 313 312 313 314 313 313 313
304 305 305 306 306 305 305 306 306 307 309 309 308 309 309 309 309 310 312 314 314 314 314 316 319 319 316 313 313 313 313 312 311 313 314 314 314 315 314 312 311 308 309 311 309 308 313 317 315 313 312 313 315 318 317 317 317 316 315 314 314 313 313 314 314 314 314 314 315 317 318 316 312 313 316 314 312 312 312 311 311 312 312 313 312 312 313 313
303 304 304 306 306 303 303 305 307 307 308 308 308 309 309 309 309 309 311 313 314 315 314 315 318 319 316 314 313 313 313 313 313 313 314 314 314 315 315 315 315 311 309 312 310 307 310 318 315 312 312 313 313 314 315 315 315 316 315 313 312 313 313 313 314 314 313 313 313 315 316 315 311 310 311 311 311 311 310 309 310 311 312 312 312 312 312 312
302 304 303 304 306 305 303 304 306 307 308 308 308 309 309 309 308 309 310 310 310 313 315 316 318 318 316 314 314 314 312 312 313 313 312 313 314 314 314 313 314 314 312 312 313 310 311 315 315 313 313 314 313 314 313 311 311 312 313 313 313 313 313 312 313 313 313 314 313 313 314 314 311 309 310 310 309 308 308 309 310 311 312 312 311 312 312 313
299 301 302 302 305 305 304 304 305 306 308 308 308 308 309 309 308 308 309 309 309 311 313 314 316 317 317 316 316 314 310 310 311 310 310 311 311 311 311 310 311 314 315 312 314 315 314 315 316 315 315 315 313 311 312 312 311 312 313 314 313 312 312 312 312 312 313 313 314 313 313 313 311 311 313 312 309 308 309 310 311 312 312 312 312 312 313 313
Wind_Speed
22 22 21 22 23 23 23 23 22 22 23 25 26 27 28 28 29 30 31 30 29 25 24 24 22 20 18 17 16 16 16 17 17 17 20 18 15 14 12 13 12 10 11 11 11 10 10 10 10 11 11 10 7 10 10 6 6 4 3 3 2 3 4 6 8 8 4 5 10 14 17 11 6 11 12 7 8 12 13 10 11 15 11 9 8 6 17 21
22 22 22 22 24 24 24 23 23 22 22 23 24 25 26 26 27 27 28 28 26 24 23 24 22 19 17 15 14 15 15 15 15 19 20 15 13 15 13 14 14 10 10 11 11 11 11 11 11 12 12 10 6 9 10 6 5 3 3 3 3 5 5 5 8 10 4 5 13 15 16 14 10 14 15 7 6 10 9 7 10 12 11 11 10 10 17 21
22 22 23 23 24 25 25 24 23 23 22 22 23 24 24 25 25 25 25 25 24 23 23 24 22 19 16 15 15 15 14 12 15 20 18 14 14 15 14 15 14 11 10 11 11 11 11 11 11 13 12 9 6 9 8 6 5 2 3 2 5 6 4 3 5 11 7 5 14 15 13 12 12 15 14 9 7 7 7 10 11 12 13 13 12 14 19 21
22 23 23 24 25 25 25 25 24 23 23 23 23 23 24 24 24 24 24 23 23 23 23 23 21 19 17 17 16 15 12 7 14 20 16 14 15 15 15 15 14 12 11 12 12 11 11 10 12 13 12 6 5 8 6 5 5 2 4 3 5 4 2 3 3 8 9 8 15 16 11 9 12 14 13 11 8 3 11 18 17 15 17 15 15 17 20 22
23 24 24 24 24 25 26 25 24 24 23 23 23 23 24 24 24 23 23 23 22 22 22 22 20 19 18 17 16 13 8 1 10 18 16 15 16 15 15 14 13 12 12 13 13 12 11 10 11 12 8 4 5 6 4 5 6 3 1 2 3 4 2 2 0 4 8 9 14 14 10 9 12 11 12 15 9 7 16 21 19 16 16 16 16 18 21 22
24 24 24 23 25 25 26 26 25 25 24 24 24 24 24 24 24 24 23 23 21 21 21 21 19 19 18 17 15 13 11 3 3 12 16 16 16 15 15 14 13 13 13 14 14 12 11 9 10 10 5 2 4 4 4 8 6 3 1 2 2 4 1 1 1 3 8 13 16 14 10 10 12 7 11 17 15 12 12 16 18 15 14 16 17 19 20 22
24 24 23 23 25 26 27 26 26 26 25 25 24 25 25 24 24 23 23 22 21 20 20 19 18 19 18 17 16 14 17 12 4 8 16 17 17 15 14 14 13 13 14 15 15 13 12 10 10 10 5 3 3 3 5 8 5 3 1 1 2 2 1 2 2 5 9 15 16 13 10 9 11 6 8 17 21 15 8 10 15 15 15 17 18 19 19 19
24 23 22 23 24 25 27 27 26 26 26 26 25 25 25 24 24 23 23 21 20 19 18 18 18 19 18 17 17 14 19 19 6 6 16 17 17 15 13 14 14 13 15 15 14 14 12 10 11 10 5 1 4 5 6 6 2 3 3 3 4 4 3 4 4 8 8 12 13 11 7 7 9 4 5 16 21 17 12 9 11 14 17 17 18 19 19 19
22 22 22 23 24 24 25 26 26 26 26 26 25 25 24 23 23 22 21 20 19 17 17 17 17 18 18 18 17 11 16 20 9 5 13 17 17 15 15 14 14 14 14 14 14 14 13 11 13 11 4 4 6 5 8 6 1 3 6 6 6 4 5 6 7 9 8 9 10 9 3 3 6 1 6 16 18 16 15 12 10 12 16 18 19 19 19 20
21 22 22 23 23 23 24 26 26 26 26 26 25 25 24 23 22 21 20 19 17 16 16 16 17 18 18 18 15 8 14 20 13 7 10 16 17 15 15 14 14 14 13 14 14 14 14 12 13 11 3 4 7 5 6 4 3 9 13 11 8 5 3 4 6 8 8 7 7 7 1 1 4 1 6 11 13 17 17 14 13 12 13 16 17 18 19 19
20 21 22 23 23 23 24 25 26 26 26 26 25 25 24 23 21 21 19 18 17 16 15 15 16 17 17 19 15 9 13 17 15 11 10 14 16 13 15 14 13 14 13 14 14 14 14 11 12 11 3 4 8 4 3 4 7 16 18 11 7 4 3 3 6 6 5 5 3 5 1 2 2 2 8 9 9 16 19 18 17 15 13 13 14 17 19 20
20 21 22 22 23 23 23 25 26 26 26 26 25 25 23 22 21 20 19 18 17 15 15 15 15 16 17 17 18 15 11 12 13 12 11 14 15 13 14 14 13 13 13 14 14 14 13 11 12 11 4 7 8 3 4 8 11 14 12 6 6 6 4 1 2 2 3 3 2 5 1 4 2 8 12 8 8 14 18 20 20 19 17 16 15 17 19 20
19 20 21 22 23 24 23 24 26 25 26 26 26 25 24 22 21 19 19 18 17 15 14 14 14 16 16 14 18 20 12 9 12 12 13 15 15 14 13 13 13 12 13 14 14 13 13 10 11 11 8 9 5 5 8 9 10 7 4 4 3 6 3 2 1 1 3 2 2 5 1 6 8 14 13 6 8 13 18 20 21 21 20 19 18 19 20 20
18 19 21 22 23 23 24 24 25 26 26 26 26 26 24 22 21 19 18 17 17 15 14 13 14 15 15 12 14 19 16 10 9 12 15 16 16 14 13 13 12 12 12 13 13 13 12 9 9 10 8 9 9 11 7 5 5 3 2 3 3 2 4 4 2 2 4 1 1 5 2 6 8 10 10 9 10 12 18 21 22 23 22 22 21 21 22 22
17 18 19 21 22 23 24 25 25 26 26 26 26 25 24 22 21 20 18 17 16 15 14 13 14 14 12 11 11 15 19 14 9 11 16 16 16 14 13 12 11 11 11 13 14 12 11 10 9 9 9 11 14 11 3 4 4 3 3 1 2 4 4 7 2 4 5 2 1 5 2 7 8 6 3 9 13 14 18 20 21 23 23 23 23 23 23 23
18 17 18 19 21 22 24 26 26 26 26 26 25 24 23 21 20 20 18 17 16 15 14 13 15 14 7 7 11 12 17 18 11 12 17 16 15 13 12 12 11 11 11 12 14 12 11 10 9 9 11 11 10 7 4 4 3 4 3 3 2 3 2 4 2 2 3 3 1 2 2 4 5 4 3 3 10 14 17 18 18 20 21 22 23 24 24 24
19 18 18 19 20 22 24 26 27 27 26 26 25 23 22 20 19 19 18 17 15 14 13 12 15 13 6 7 10 11 16 19 14 14 18 16 14 13 13 13 12 11 11 13 15 13 12 10 10 7 6 5 3 6 5 1 3 2 2 2 3 3 3 2 3 3 2 3 0 2 1 6 7 7 6 3 5 12 15 17 18 18 20 21 22 24 24 25
21 20 19 19 20 22 24 26 27 27 25 25 23 21 20 18 17 16 17 17 16 14 11 12 13 8 7 12 11 10 16 17 15 16 18 16 13 13 14 14 12 13 14 14 12 12 10 6 7 4 2 3 3 5 5 5 5 5 3 3 2 2 3 3 3 3 2 3 2 1 2 10 11 13 14 8 5 9 14 17 18 18 20 21 23 25 25 26
23 22 20 20 20 22 23 25 27 26 26 25 22 20 19 16 15 15 17 19 17 10 5 13 18 6 3 12 15 12 16 16 15 18 19 16 14 14 14 13 15 17 15 10 7 9 7 4 5 4 3 4 6 6 7 8 8 9 6 5 5 4 4 4 4 4 2 4 3 4 4 9 10 11 15 15 10 11 16 18 20 22 22 24 25 27 28 29
24 22 22 21 21 22 22 25 26 26 27 24 24 22 19 17 10 8 17 21 19 9 2 15 25 8 6 9 19 15 15 16 18 21 19 16 16 15 13 14 15 13 9 6 5 5 6 4 4 5 7 8 9 7 6 5 7 7 6 4 4 4 3 3 2 4 1 4 3 3 4 8 11 9 15 21 16 13 18 21 24 27 28 30 31 32 32 32
24 22 23 21 21 21 22 24 25 27 27 24 28 25 20 22 12 7 16 17 16 11 2 12 26 13 5 7 20 17 15 16 17 22 19 17 18 14 12 13 10 6 3 4 6 3 5 5 7 7 8 8 7 7 7 6 6 6 6 5 2 2 3 2 1 3 3 2 2 2 3 9 12 10 15 20 13 13 22 23 26 31 32 34 35 35 35 32
23 23 24 21 20 21 21 24 24 27 29 26 32 27 20 27 18 12 18 10 11 12 2 9 24 16 3 6 17 16 15 12 14 21 20 18 18 12 10 9 6 4 2 4 6 4 3 5 9 8 6 7 6 6 7 6 6 5 4 6 3 2 2 1 1 3 4 0 3 3 4 9 12 10 14 19 16 19 25 25 27 30 31 35 36 36 34 32
25 24 24 21 19 20 21 23 24 27 31 30 34 27 19 27 19 13 18 8 8 14 6 8 20 18 7 7 15 15 12 10 12 20 21 20 18 12 10 8 5 5 3 4 7 6 4 6 7 8 9 9 6 4 8 7 4 4 4 6 3 2 2 1 2 3 4 2 1 1 3 7 8 7 11 17 19 21 23 24 27 29 31 35 35 34 33 31
29 26 22 21 19 20 21 23 25 28 32 32 34 26 19 26 21 13 14 5 2 12 11 9 15 21 13 8 14 14 10 9 12 19 22 20 17 10 9 8 6 4 4 5 8 8 5 5 3 10 8 8 7 4 7 7 3 1 3 6 4 4 4 3 2 1 3 4 3 3 4 6 5 5 7 8 8 11 14 16 22 24 25 27 27 27 25 24
28 26 22 22 21 20 21 23 26 29 32 32 32 26 21 25 22 16 11 3 1 6 9 10 10 17 17 10 13 14 9 8 10 18 23 22 17 10 6 7 6 4 4 5 8 6 3 2 5 9 5 6 8 5 6 6 3 1 3 6 7 7 7 3 3 5 4 4 4 4 3 6 5 5 7 5 6 8 8 9 18 21 18 18 19 18 16 16
27 25 22 23 23 23 22 22 25 28 30 33 31 25 23 24 21 18 10 4 1 3 5 11 7 11 17 12 14 14 6 6 9 17 23 22 18 11 5 4 2 3 5 5 5 3 1 1 4 7 6 7 7 5 5 5 6 2 3 5 7 8 9 7 5 4 2 2 3 3 3 5 7 6 8 6 7 11 10 10 20 22 14 13 15 13 13 14
26 23 23 26 26 26 25 21 24 29 29 31 31 26 24 25 21 17 8 5 3 5 6 9 8 10 14 13 18 14 3 6 10 14 22 21 17 11 7 4 2 2 4 4 2 1 1 4 5 6 7 6 6 5 5 6 7 3 2 6 8 9 8 7 6 4 2 3 4 4 4 2 6 6 6 5 6 10 11 10 16 18 12 11 12 10 9 9
25 25 25 28 26 26 25 21 24 30 30 30 33 28 24 26 22 14 6 2 3 6 6 7 9 12 13 15 22 11 4 11 9 9 20 20 14 8 4 5 5 4 2 4 4 2 2 4 4 5 6 4 5 4 5 8 6 3 3 7 7 7 8 5 6 4 1 1 4 4 2 2 6 7 5 5 4 8 10 10 12 15 15 11 8 6 6 7
26 28 27 26 25 23 24 22 23 28 28 29 33 28 25 26 19 9 3 2 2 4 4 9 10 11 13 16 16 8 6 8 4 8 18 17 12 6 2 5 8 7 4 4 5 2 2 2 5 6 5 4 3 1 3 4 3 5 6 8 7 7 6 5 5 4 3 2 5 5 2 2 5 7 5 2 2 7 10 9 9 12 13 6 2 4 7 7
26 27 27 26 24 23 25 23 21 23 26 31 32 28 28 24 12 5 3 3 2 2 3 8 9 10 13 11 6 3 5 2 4 12 13 10 10 5 6 7 8 8 5 7 4 1 2 1 1 3 3 5 5 4 2 1 6 11 7 7 8 7 6 4 3 4 4 2 7 6 2 1 3 6 5 4 4 6 5 6 7 9 10 5 1 3 6 6
25 26 26 28 26 24 26 23 21 25 27 31 31 30 27 14 4 4 6 2 2 2 3 4 4 8 14 12 5 3 3 2 5 12 9 5 6 6 7 6 4 5 3 4 3 4 5 3 1 2 1 5 7 6 6 4 7 9 5 5 5 4 5 4 5 4 1 5 6 4 1 2 4 6 5 5 6 6 6 5 7 8 11 8 1 3 6 8
23 25 25 26 25 23 24 22 23 28 30 31 33 32 20 5 1 5 4 2 3 3 4 5 5 6 12 12 7 5 4 2 4 7 5 4 4 4 4 5 4 4 2 3 2 3 3 1 3 3 1 4 6 5 5 4 4 5 5 7 5 2 3 2 3 1 3 6 3 2 1 2 6 8 8 10 10 7 9 10 9 9 13 11 2 3 5 7
21 23 25 25 23 22 21 20 26 31 32 34 33 24 10 3 7 8 4 4 3 3 5 6 4 5 10 10 5 5 4 2 4 3 2 3 4 4 3 3 6 5 3 5 4 2 1 4 3 1 2 4 4 6 4 1 0 4 6 6 5 3 2 2 4 2 4 4 2 2 2 3 5 5 9 14 10 6 9 12 11 11 14 12 2 4 4 4
20 20 24 25 22 21 18 20 28 31 33 36 27 13 5 5 9 9 7 5 2 1 3 5 6 6 9 8 5 6 4 1 4 4 2 4 5 5 5 5 4 5 4 3 3 5 4 3 3 2 1 3 4 3 5 6 4 2 3 5 5 5 5 4 4 3 4 3 3 3 2 3 3 2 7 12 12 12 15 15 13 13 13 9 2 4 4 3
20 19 21 21 20 20 18 23 29 29 33 32 17 6 8 9 8 8 9 5 2 2 3 5 9 8 7 3 2 6 3 1 4 4 4 6 6 7 6 6 6 4 6 5 2 3 4 4 4 2 1 3 3 2 3 7 3 1 2 5 3 5 5 3 4 5 3 1 2 2 3 4 4 6 9 9 10 13 15 13 10 9 9 8 6 5 5 4
21 22 19 19 24 22 19 25 29 28 32 23 9 7 11 11 7 7 8 6 5 7 8 6 5 6 7 2 2 6 1 2 5 4 4 4 4 6 6 5 6 5 6 7 3 2 3 3 4 4 3 3 2 2 1 3 3 2 2 3 5 4 7 6 2 1 3 1 3 1 4 5 4 7 9 6 7 10 10 9 9 8 8 10 12 10 9 7
24 25 21 20 26 24 19 24 27 28 28 14 7 11 10 9 5 5 7 8 7 9 11 6 3 4 7 4 5 9 4 2 5 4 5 3 2 7 7 5 8 10 7 5 2 3 5 1 4 3 2 3 3 2 4 4 4 5 3 6 4 2 5 5 2 3 4 2 4 1 4 5 2 3 7 6 6 10 9 9 11 11 9 11 15 15 12 9
28 25 21 22 26 24 21 23 24 27 20 6 9 12 6 5 4 5 8 9 8 8 7 5 3 3 7 7 6 10 7 5 6 5 5 4 5 7 10 6 7 12 12 6 2 2 5 3 3 2 2 3 4 3 3 4 4 4 4 4 4 3 2 2 3 2 1 2 4 4 3 4 4 5 4 2 6 9 8 7 8 10 12 14 14 10 7 6
33 23 17 23 28 25 23 22 22 25 15 4 11 10 3 3 2 6 17 14 7 7 6 5 3 2 5 7 6 8 8 8 9 6 5 5 5 6 12 9 4 10 14 8 4 3 4 4 2 2 1 2 3 1 4 1 3 3 3 3 2 2 4 3 3 4 4 3 3 4 4 3 6 6 5 7 9 7 4 2 4 11 16 16 11 7 4 2
26 16 10 24 32 26 24 22 18 17 10 8 12 5 1 2 1 6 24 20 6 3 5 4 3 4 5 4 4 6 6 5 8 7 5 6 5 4 9 11 6 9 12 7 4 4 3 3 3 2 3 0 2 3 7 7 4 3 3 4 2 1 2 2 1 2 4 4 3 2 4 6 6 4 7 10 9 8 6 4 6 11 13 12 11 9 3 5
12 6 4 22 34 29 26 20 11 10 8 9 9 2 2 1 1 5 19 18 7 2 5 6 6 6 5 4 4 5 4 3 6 7 3 5 7 5 8 12 10 11 8 4 3 5 2 3 5 2 0 3 4 3 3 5 4 5 5 6 6 4 4 3 2 1 2 3 4 3 4 8 6 4 7 8 7 8 7 6 8 9 6 3 1 2 6 8
6 3 0 17 34 34 28 15 6 8 9 7 6 2 1 1 1 6 10 8 4 2 4 5 4 4 4 5 5 6 6 4 5 6 4 7 9 5 7 13 16 18 13 4 3 4 4 4 4 2 4 5 4 3 1 2 1 2 3 4 5 4 5 6 5 3 1 1 2 3 2 8 6 4 6 6 6 6 5 5 5 3 4 7 8 9 6 7
8 4 2 13 35 38 23 9 6 8 6 4 4 1 0 1 1 4 5 4 3 2 3 4 4 4 4 3 5 7 8 6 6 8 6 5 6 5 8 16 20 17 11 4 3 4 4 4 4 0 3 3 4 4 3 3 2 1 4 3 5 3 3 5 5 4 4 4 3 3 2 7 6 2 3 6 7 5 4 3 3 6 10 9 6 4 6 11
10 7 1 10 32 37 19 5 8 11 8 4 5 4 1 1 1 3 4 5 4 3 4 3 4 5 3 4 7 9 11 7 5 9 6 1 4 7 12 21 21 14 10 9 10 10 6 2 4 3 1 3 4 3 3 3 2 4 4 3 5 5 6 4 2 4 2 5 7 5 5 8 5 4 4 4 4 3 5 4 4 6 8 7 3 4 11 16
8 7 4 5 19 26 13 1 4 10 8 6 6 6 3 2 3 3 3 4 2 4 5 3 5 6 3 4 6 6 11 8 3 6 5 1 2 4 13 24 22 15 14 14 15 15 8 3 5 6 6 6 6 5 5 4 3 2 2 5 7 8 9 6 3 4 4 5 7 6 8 5 2 5 5 3 3 3 6 5 4 4 6 5 4 9 16 21
5 3 4 4 7 11 8 4 3 3 6 7 5 6 7 4 3 2 2 2 2 2 3 1 5 6 3 5 7 5 9 9 2 4 5 6 3 2 11 24 24 18 14 13 19 16 4 2 7 9 11 12 12 8 4 6 6 5 5 8 8 9 10 7 5 4 6 3 5 11 13 6 3 5 6 5 4 5 7 7 6 2 6 10 14 18 21 23
3 1 4 4 3 4 4 4 3 1 4 9 6 6 11 9 3 1 2 2 3 3 2 3 3 6 5 8 7 6 10 10 4 4 7 8 4 1 5 15 19 19 11 12 21 14 4 4 10 10 15 14 8 6 4 8 10 11 10 11 10 10 10 9 8 10 6 6 7 13 10 9 9 7 7 8 6 5 7 9 9 9 14 20 22 24 24 23
3 1 5 6 3 2 2 5 7 2 3 9 4 2 10 11 7 5 4 1 1 3 3 1 2 7 10 12 8 5 8 8 6 5 5 5 3 1 2 3 7 12 9 9 15 9 3 8 10 9 14 12 3 5 6 8 10 10 12 14 14 13 13 13 16 14 9 8 14 8 10 13 14 9 9 10 7 8 11 12 12 15 19 23 26 27 26 24
3 1 2 5 4 3 2 6 10 6 5 8 5 2 6 11 13 9 3 3 1 2 3 4 5 8 10 12 10 7 8 8 8 7 5 5 5 4 4 1 2 6 6 5 5 4 3 6 6 8 12 12 4 5 6 8 8 7 11 14 15 16 17 18 20 19 14 16 16 6 7 15 12 8 11 14 15 17 18 17 17 20 24 26 27 28 27 25
3 2 1 3 4 5 5 5 8 7 5 7 7 5 3 8 14 10 2 4 5 3 4 7 8 7 7 9 10 9 11 13 12 10 6 5 2 2 4 4 3 4 5 5 2 2 4 3 1 6 6 9 6 5 5 6 7 7 8 10 12 14 16 18 21 18 14 15 14 4 4 13 7 11 14 19 20 19 17 18 21 24 28 29 29 29 29 27
6 2 2 1 2 6 7 4 4 4 4 6 8 8 7 8 10 9 4 4 6 4 6 9 6 3 3 6 9 10 11 14 15 15 18 15 12 12 10 6 8 7 5 6 5 3 5 2 2 5 4 6 5 8 6 4 3 2 3 7 12 14 15 17 17 13 11 13 14 8 8 13 6 11 13 16 15 14 16 21 25 29 31 31 30 30 31 29
10 6 1 1 1 4 6 4 4 4 4 6 8 9 10 10 7 7 5 5 5 7 7 8 7 4 2 5 10 15 16 17 16 18 23 21 18 20 17 13 17 15 8 7 5 3 6 5 1 4 6 5 3 5 8 7 4 4 6 12 18 18 17 15 10 10 12 13 12 10 13 15 7 8 9 9 7 11 19 25 29 31 32 31 30 31 31 30
Wind_Direction
203 194 187 189 186 184 186 188 191 194 195 194 194 196 199 201 202 203 208 212 215 212 212 218 215 208 205 208 215 221 225 228 228 231 230 226 222 223 221 208 201 202 205 204 201 198 189 183 182 176 175 174 170 177 173 161 151 137 104 98 170 180 196 189 177 190 170 169 183 183 178 161 151 171 174 169 167 166 166 189 193 193 212 202 189 183 182 186
203 194 189 188 184 183 184 184 189 191 191 191 189 191 194 196 198 200 204 209 210 207 206 206 199 196 203 210 218 225 230 229 235 239 228 221 224 220 215 204 199 200 201 203 199 196 187 181 180 177 175 170 166 175 178 177 150 123 104 112 214 201 200 188 178 190 174 166 177 178 179 169 165 168 167 165 161 162 165 192 192 196 202 185 189 196 188 189
202 194 193 189 182 182 183 183 186 188 187 186 184 185 187 188 190 193 197 200 201 198 196 195 189 191 202 210 215 223 231 239 250 242 221 216 224 214 208 202 200 201 200 201 195 190 184 180 180 179 176 167 161 172 173 175 169 135 112 128 237 216 203 208 199 199 201 183 167 169 177 170 167 167 170 172 160 171 189 191 191 196 193 184 186 190 189 192
201 197 195 188 182 182 182 183 183 185 184 181 181 180 181 182 182 184 187 189 191 190 190 191 187 189 200 208 210 216 225 254 257 239 217 214 218 209 205 200 200 202 199 195 188 183 179 176 180 178 175 166 152 170 176 173 183 164 131 184 227 192 174 212 218 202 209 198 172 165 163 168 171 170 176 163 141 227 222 202 203 203 192 184 182 184 189 193
201 201 196 187 184 183 182 182 182 182 182 180 179 178 178 178 179 180 182 183 186 189 192 192 186 188 198 202 203 204 198 266 256 231 219 215 210 205 203 198 201 199 192 190 185 180 178 176 176 173 168 161 141 158 188 171 156 132 156 255 192 157 153 209 169 188 202 186 168 159 154 173 173 176 188 171 163 224 221 211 211 212 203 198 192 188 189 194
200 204 197 188 185 184 183 182 181 181 181 179 178 178 179 178 179 179 180 181 185 190 194 193 186 188 194 195 197 194 185 178 273 219 213 210 202 200 199 199 200 193 189 188 185 181 182 179 172 173 159 132 155 156 169 167 157 142 260 303 161 187 199 49 116 171 183 169 164 165 165 170 165 187 202 191 204 219 222 220 215 217 215 212 205 196 194 197
200 203 198 191 188 186 184 182 181 181 180 180 179 179 179 178 179 178 179 180 184 190 195 194 187 188 190 190 194 196 202 221 286 213 204 202 198 197 197 199 194 189 189 186 187 186 186 184 177 176 142 91 180 171 151 159 158 128 164 267 130 178 148 32 142 150 167 170 168 168 166 168 167 184 204 209 223 225 233 228 217 221 218 214 210 206 207 207
201 201 197 194 191 187 184 183 182 181 181 181 180 181 180 179 179 178 178 179 183 191 196 194 188 188 188 190 195 199 213 223 252 213 198 196 197 197 196 195 190 188 188 187 189 188 192 192 184 177 152 149 184 165 148 138 96 102 141 182 120 117 105 65 122 141 153 165 165 165 164 176 178 179 215 222 227 223 229 230 221 221 216 216 216 216 217 214
201 199 196 194 192 187 185 185 184 183 182 182 181 182 181 180 180 178 178 179 182 191 197 195 192 190 188 193 195 201 218 216 222 223 198 197 199 197 195 192 190 189 186 188 190 193 198 195 188 184 181 195 168 152 156 145 252 153 132 147 122 100 101 89 116 130 139 151 158 166 156 175 184 243 258 236 230 219 221 221 217 214 213 217 219 222 223 222
198 197 195 194 193 189 186 185 185 185 183 183 183 182 182 181 181 180 179 178 182 191 196 196 195 191 191 193 191 199 218 213 219 232 200 198 200 196 194 191 193 193 191 192 194 199 198 193 191 187 187 180 156 143 163 162 180 139 118 109 98 93 103 101 121 123 130 137 154 170 158 252 176 191 262 247 229 215 213 211 211 209 211 216 220 225 227 230
196 194 194 193 194 191 187 186 186 186 185 184 184 183 182 182 182 182 180 179 183 190 195 199 196 193 194 194 192 200 212 210 219 225 205 198 199 197 196 195 196 197 199 198 197 200 196 196 191 183 200 175 153 130 152 159 140 131 119 93 48 62 93 92 117 122 124 118 150 159 140 317 107 179 242 244 223 213 212 210 213 214 217 219 222 226 228 231
194 192 193 193 194 193 188 186 186 187 186 185 185 184 183 184 184 183 181 180 183 188 193 199 197 195 195 199 204 207 211 213 217 220 209 199 198 200 200 199 202 202 206 205 202 197 191 192 190 190 193 158 150 113 142 147 132 126 117 91 4 19 46 11 96 116 129 105 132 126 95 290 231 226 238 238 223 216 211 212 216 219 223 225 225 226 228 231
190 189 192 193 194 194 191 188 188 188 187 186 186 186 184 185 186 185 184 181 184 187 192 198 197 197 194 202 212 210 213 215 213 214 205 198 198 201 202 203 204 203 205 205 201 193 186 183 188 192 169 151 141 120 137 128 121 120 89 97 50 21 356 269 18 52 137 112 139 128 220 271 253 239 231 210 207 210 210 215 220 224 227 228 228 229 231 232
188 188 191 193 195 194 193 189 189 190 188 187 187 187 186 186 187 188 186 182 183 186 191 196 195 195 196 207 218 214 214 210 207 208 200 196 198 201 204 204 200 198 199 197 191 186 182 177 182 180 156 149 132 119 115 67 83 106 70 67 77 116 261 290 335 156 141 151 167 122 193 263 273 256 224 213 218 213 216 219 223 228 230 231 231 233 236 236
195 194 191 193 195 194 194 192 191 191 189 189 189 188 187 187 189 189 187 184 183 185 188 193 192 190 200 217 220 216 214 213 213 205 197 196 200 204 202 196 191 188 189 189 184 177 177 180 177 153 128 135 130 116 63 17 28 40 103 310 357 155 256 306 292 179 156 170 114 112 204 265 275 291 257 235 232 220 224 228 228 231 232 233 234 236 240 241
202 202 196 195 195 195 195 193 193 192 189 189 190 190 190 190 190 189 187 183 181 183 185 189 191 188 197 219 214 214 213 214 217 202 196 197 202 204 195 186 182 183 185 184 182 178 174 170 153 129 121 130 129 107 57 38 354 358 106 186 241 162 250 309 281 241 157 128 59 106 217 267 276 293 347 276 228 212 222 234 233 235 236 235 237 239 243 245
205 207 203 197 197 197 196 194 195 193 189 189 190 191 191 190 189 188 185 181 179 179 183 188 189 192 223 224 208 212 209 209 211 200 194 196 201 198 187 181 177 179 177 171 175 175 169 158 141 129 112 112 116 105 94 2 262 289 59 127 209 178 182 259 274 286 96 125 257 38 238 253 272 285 300 312 217 211 223 236 238 240 241 241 241 242 245 248
205 207 205 199 199 198 197 196 196 194 189 188 189 189 189 188 187 186 182 178 169 165 176 184 176 185 239 223 206 204 202 202 203 194 190 194 195 188 183 181 174 166 156 152 165 168 160 143 130 128 64 87 138 130 148 211 194 188 183 147 197 198 197 225 236 250 73 104 205 105 262 260 273 287 283 265 225 234 242 245 249 248 246 247 246 246 247 250
203 206 206 201 200 199 198 197 195 194 190 186 185 183 181 178 177 182 181 174 163 152 173 185 176 167 275 212 198 195 195 194 192 187 188 190 185 180 180 176 169 159 147 141 162 165 146 105 106 135 153 164 187 174 177 198 176 175 176 144 155 176 223 239 245 264 122 121 210 210 230 266 276 287 281 266 254 261 263 262 261 258 254 252 250 250 252 254
200 203 205 201 202 201 198 196 194 193 190 185 181 174 168 163 156 175 180 176 175 168 174 186 185 195 350 190 186 186 184 183 186 185 186 188 179 174 170 163 161 155 149 150 160 163 137 134 175 186 184 185 191 172 148 160 152 146 131 107 139 163 226 240 257 305 90 141 237 236 239 272 273 274 274 271 274 275 269 266 262 259 257 256 255 256 257 258
196 200 202 202 204 203 200 196 193 192 188 184 181 176 173 172 165 174 176 179 189 182 137 186 190 206 330 177 179 177 172 174 184 186 186 186 176 169 166 159 152 146 172 147 124 127 131 163 211 206 187 175 165 142 108 99 106 117 135 130 117 164 217 222 209 318 10 148 256 345 307 272 266 268 271 272 276 264 258 257 257 257 257 258 258 258 259 261
194 198 199 203 207 205 203 195 191 190 186 184 184 182 186 186 185 186 176 176 197 188 151 185 192 204 259 181 179 172 166 166 183 188 186 181 175 176 173 156 141 150 177 120 109 113 145 205 228 204 154 115 101 104 94 88 97 98 126 133 138 189 208 284 298 338 16 127 259 354 343 275 267 267 266 262 253 253 255 252 254 258 257 258 258 259 261 263
194 195 196 205 210 205 204 196 190 190 186 186 187 184 187 189 190 189 176 164 191 195 207 192 194 201 199 179 182 176 170 165 179 189 185 179 178 179 169 149 133 144 151 154 144 145 176 242 234 174 143 115 95 99 100 87 82 93 115 133 165 198 131 189 257 331 16 66 214 337 315 280 281 288 272 259 250 254 259 256 256 257 257 260 261 262 264 265
189 190 197 206 209 207 205 197 192 191 189 189 187 184 185 186 186 182 171 134 164 196 207 203 197 201 197 180 184 185 183 176 180 186 186 182 176 171 170 151 124 137 170 169 150 153 199 258 149 133 145 137 121 129 131 118 75 56 143 141 161 184 162 181 195 52 15 21 44 37 331 295 305 318 285 273 263 259 259 258 258 254 254 261 263 263 263 263
188 190 198 203 209 211 205 200 197 191 190 189 186 182 183 183 181 176 164 85 23 192 203 203 202 204 200 190 187 185 185 189 189 186 186 185 177 164 163 155 140 169 186 143 133 156 223 259 130 123 132 138 129 159 180 148 116 283 207 172 169 165 149 126 91 74 43 355 354 31 346 288 315 310 269 296 341 295 277 270 267 264 260 259 261 263 265 265
190 193 198 202 208 208 203 204 200 191 190 190 184 180 182 180 174 174 160 46 293 194 179 189 195 199 197 194 180 169 171 211 200 189 185 186 183 169 151 150 113 162 172 136 129 173 223 69 108 123 128 130 133 171 201 149 124 185 225 167 146 131 122 122 117 96 108 236 318 45 143 258 313 298 265 307 336 303 298 290 276 273 269 265 269 276 276 267
195 196 198 199 203 206 202 200 198 192 190 187 180 178 181 176 168 171 150 26 264 177 147 176 182 184 189 186 173 161 151 190 182 190 187 184 187 178 169 176 92 133 166 132 139 232 123 84 69 91 104 114 141 183 205 145 129 194 213 125 121 118 127 137 117 104 188 228 328 17 120 223 295 269 270 325 328 302 298 287 278 279 286 287 278 276 270 250
195 192 195 198 207 216 207 201 202 194 186 181 177 176 178 172 166 162 140 30 209 147 142 174 171 177 179 174 175 168 138 160 157 190 188 183 185 176 177 196 150 135 121 124 179 258 83 142 157 122 100 126 176 210 183 130 105 230 183 114 112 114 121 117 96 93 50 357 309 313 121 186 270 272 301 345 322 293 284 272 278 296 308 303 271 236 216 208
193 193 199 203 213 220 211 209 208 194 181 173 172 173 172 168 161 141 119 210 163 102 141 162 159 173 167 163 177 172 137 157 149 172 178 178 183 171 148 181 142 112 55 79 161 230 33 181 194 143 134 177 195 230 162 126 89 169 142 93 79 73 79 79 84 96 54 24 251 250 184 195 265 282 306 350 275 256 264 267 275 302 319 320 242 176 174 185
194 197 199 202 208 209 208 212 201 185 175 169 169 169 164 160 150 133 193 218 157 86 130 155 166 171 156 150 179 171 131 149 126 140 155 167 171 148 115 138 124 103 40 34 90 242 326 25 50 101 143 168 136 84 59 103 137 139 115 71 63 36 35 50 52 77 61 306 254 246 233 185 265 278 258 217 219 216 237 285 287 310 338 354 111 141 152 160
194 195 196 200 205 204 205 204 184 171 169 166 165 161 155 147 112 157 195 204 119 107 107 151 174 158 158 161 173 172 116 58 139 144 150 157 150 131 118 130 109 89 52 36 51 333 357 47 1 349 130 130 109 67 40 60 116 116 90 90 86 6 12 25 2 43 97 257 260 264 255 168 222 260 251 240 254 224 207 259 272 295 332 351 49 156 148 147
192 195 196 199 206 207 203 193 170 163 164 163 161 157 150 131 210 197 193 140 150 180 167 185 201 174 171 167 158 158 124 99 168 155 150 148 152 164 158 171 158 118 161 181 141 358 19 8 308 336 265 166 118 78 47 15 30 77 99 108 99 11 15 357 315 350 223 245 263 271 225 209 233 246 259 264 267 244 223 235 244 274 320 346 10 186 162 148
189 192 194 199 207 207 199 182 166 161 161 161 159 154 136 131 199 208 200 172 195 192 157 164 176 161 162 158 154 159 130 151 184 156 130 135 153 199 238 201 151 127 178 178 131 119 331 306 302 55 266 225 158 123 133 236 299 121 134 129 127 121 106 243 264 283 257 257 293 281 237 262 267 256 250 252 258 265 257 256 258 278 310 331 325 182 172 151
181 185 189 200 207 199 188 172 166 163 160 159 156 146 134 179 199 202 196 202 227 106 126 139 118 125 160 167 181 169 135 172 174 134 117 128 147 198 231 218 164 103 114 147 147 164 175 264 235 168 210 203 178 161 152 145 136 166 160 129 144 155 153 201 216 211 241 273 302 289 248 200 217 268 251 252 275 285 273 270 277 282 293 303 265 174 186 181
174 180 187 198 196 181 173 168 166 165 162 160 157 154 175 195 205 197 188 194 205 135 110 131 126 137 178 182 203 186 151 172 176 131 143 167 175 191 194 202 193 135 130 161 201 170 169 241 264 307 319 140 153 223 127 109 112 236 126 105 156 182 142 140 183 177 176 300 293 250 242 212 214 285 280 272 290 285 268 269 278 277 269 259 241 214 212 207
176 180 189 197 183 166 163 168 166 167 168 163 160 182 198 207 195 179 174 160 169 151 122 125 134 149 177 161 198 213 215 111 161 153 178 192 202 196 191 199 189 174 163 160 165 162 163 255 315 352 9 53 94 220 90 109 167 163 122 169 210 170 112 113 201 44 83 231 268 221 254 291 320 298 297 305 299 290 282 277 269 256 240 235 239 242 240 237
181 182 191 193 174 161 164 170 167 169 172 172 189 194 206 215 175 136 158 147 140 137 127 147 183 155 169 171 185 196 192 128 159 177 187 186 225 196 193 211 187 187 193 155 157 201 156 151 334 30 71 7 9 87 56 43 112 122 170 203 189 120 90 108 171 5 47 236 275 283 241 287 323 277 315 337 283 276 284 277 265 258 245 237 244 249 250 253
184 181 191 189 171 163 166 169 168 171 169 175 220 212 211 205 167 114 141 135 121 127 132 165 173 142 173 181 186 185 178 170 176 184 174 185 242 197 177 198 193 189 195 166 149 204 134 123 321 34 139 310 353 86 84 14 49 121 177 170 124 143 171 102 146 175 137 229 278 305 276 257 210 227 294 293 225 246 267 273 264 259 253 245 241 242 247 258
182 179 192 187 171 165 169 168 165 168 164 186 217 223 224 180 201 148 150 141 126 141 154 181 163 128 177 175 171 179 184 182 172 175 180 188 233 206 178 186 187 187 189 169 156 189 127 132 232 316 291 304 7 98 184 215 31 61 103 111 90 130 164 164 151 164 176 197 252 309 322 264 225 215 209 209 210 212 223 252 243 237 243 248 255 272 289 301
172 171 198 186 170 163 165 164 159 162 171 208 210 229 340 167 332 165 160 153 148 159 165 189 165 145 166 161 156 175 189 183 167 180 207 188 203 236 197 186 168 173 175 144 135 172 121 134 185 310 336 210 195 216 191 178 157 124 135 167 186 75 114 160 102 115 142 159 188 266 297 267 245 214 197 204 206 201 197 209 237 243 251 267 286 296 315 68
156 142 200 183 172 162 156 154 159 174 190 215 214 263 336 217 29 169 169 161 155 156 153 163 160 154 155 149 165 175 160 151 175 188 216 198 200 227 208 190 163 149 147 111 151 172 146 156 160 142 236 198 224 254 197 183 177 162 176 189 181 152 123 148 227 251 116 143 169 174 262 264 249 208 204 207 207 213 214 216 240 259 266 276 284 125 99 71
148 110 110 179 173 164 156 156 182 197 202 213 210 198 307 251 138 169 180 167 146 129 130 141 147 150 156 159 165 163 153 156 185 191 212 216 209 212 203 185 162 156 157 150 175 163 115 108 118 149 215 212 244 290 191 178 130 123 206 204 171 154 135 148 195 221 126 152 160 119 264 270 261 204 207 240 250 240 233 229 243 232 137 113 101 101 80 23
160 149 70 174 178 172 161 163 191 200 221 211 184 182 38 333 136 158 178 184 166 131 129 151 166 165 172 169 154 158 168 176 191 198 211 225 215 217 194 172 161 160 161 147 159 154 123 111 114 52 301 307 313 335 22 48 70 199 238 186 156 174 148 144 173 173 158 182 155 97 276 268 277 264 241 268 272 251 215 201 185 139 120 111 98 62 6 344
171 183 139 171 183 182 176 168 182 199 219 185 180 223 271 283 218 163 180 196 189 153 145 162 181 180 173 144 150 170 181 181 200 208 211 224 207 208 189 175 168 165 178 188 177 171 180 161 123 123 33 356 340 342 335 308 215 207 223 170 164 155 113 109 121 113 169 210 163 151 242 251 271 323 319 297 296 243 192 176 168 140 105 89 81 350 334 324
158 192 222 193 187 188 192 249 187 201 203 174 190 213 212 252 241 205 193 196 186 155 159 177 176 164 151 142 144 171 185 185 189 198 202 238 225 207 189 185 180 180 197 197 169 162 182 184 141 155 174 189 202 209 222 223 190 189 193 173 178 164 147 154 117 111 228 225 157 181 235 236 285 316 300 284 300 234 202 205 203 145 76 35 320 305 307 305
144 179 202 228 220 205 216 299 325 212 184 177 196 199 192 217 245 225 186 190 225 159 129 125 155 145 133 153 149 165 199 207 183 155 191 204 215 245 195 191 192 195 201 183 160 154 146 200 185 187 198 203 205 204 169 123 142 190 186 169 177 178 169 149 111 165 209 158 161 224 230 221 248 268 259 250 243 223 221 238 248 306 349 317 296 295 294 293
162 176 160 178 241 218 224 265 279 319 175 184 193 187 193 203 213 214 197 200 218 179 104 27 143 164 171 164 159 177 199 207 187 159 193 197 193 330 192 192 199 202 196 168 166 155 86 210 205 202 214 217 198 188 165 135 166 190 175 166 178 180 169 159 185 207 165 125 231 236 216 225 238 218 223 243 245 246 249 252 267 302 306 296 292 291 286 285
174 168 161 169 181 168 199 209 193 176 173 186 197 194 193 196 192 195 203 194 214 187 176 288 206 189 177 165 166 179 185 200 211 200 197 182 157 79 135 191 212 205 189 167 174 158 109 210 210 199 220 230 170 160 181 162 177 186 174 177 180 176 175 185 210 213 159 179 238 213 162 219 232 200 208 226 218 229 240 247 267 283 284 282 283 282 281 283
196 273 173 170 172 169 186 171 163 164 177 181 201 237 190 193 199 201 166 100 233 254 188 192 216 207 187 172 171 174 173 185 209 216 190 163 166 151 141 170 233 198 173 155 179 173 156 217 211 179 216 238 205 172 188 174 177 184 183 186 180 179 187 195 213 216 195 214 234 169 159 236 232 182 206 220 218 232 243 252 265 269 270 272 273 274 276 277
188 255 200 175 172 157 161 164 160 168 175 175 202 229 202 199 205 206 179 150 194 224 188 200 213 196 186 187 186 192 191 186 197 207 175 143 162 170 166 187 180 162 165 162 176 187 186 234 183 137 207 245 210 186 206 185 180 189 189 187 182 187 198 207 218 219 207 226 239 205 267 269 229 163 202 223 225 235 246 253 256 258 261 265 265 267 271 271
179 158 105 121 174 154 157 168 161 163 173 179 196 203 208 222 211 199 219 219 202 197 183 194 195 130 141 195 206 218 209 192 197 195 176 173 188 190 191 189 155 143 169 182 169 157 177 223 40 104 186 247 212 187 187 122 95 210 200 183 189 196 206 213 219 213 199 219 233 229 255 263 214 159 200 223 217 221 236 244 250 255 260 262 263 266 270 272
205 207 211 56 145 168 163 155 156 178 194 195 202 200 202 215 202 177 213 250 229 229 218 188 170 139 142 190 212 229 224 213 220 210 191 192 199 193 192 184 166 162 167 173 172 164 166 172 136 144 190 251 267 166 150 106 89 245 231 202 198 202 211 217 223 222 209 206 214 218 230 243 221 162 204 230 197 208 235 243 247 254 260 264 266 270 276 278